Theta_e
321 311 310 309 298 295 292 296 302 302 303 305 308 308 312 314 312 306 331 333 336 342 344 345 348 350 350 349 349 348 346 342 342 342 341 340 342 340 339 339 338 338 340 339 340 340 340 340 342
313 314 309 303 294 289 290 297 300 304 306 308 308 307 309 311 322 324 324 338 341 340 341 343 345 348 349 349 348 347 346 342 342 341 340 341 342 340 338 338 340 338 338 338 339 339 340 341 341
315 313 303 299 293 290 290 296 302 306 308 305 303 309 310 316 323 325 329 337 337 337 341 342 344 347 349 349 347 347 346 343 342 342 340 341 342 340 339 340 339 336 337 338 337 338 338 338 340
308 307 302 295 292 295 295 300 305 304 306 306 306 306 313 322 325 327 331 334 335 337 340 342 345 347 348 348 347 347 345 343 342 341 339 340 340 341 341 339 337 336 336 336 335 335 336 339 340
305 302 295 293 293 294 297 304 305 302 303 302 303 305 312 324 329 329 332 336 336 337 339 341 343 345 346 347 347 346 345 343 342 341 339 338 338 340 340 338 336 335 334 334 334 334 335 337 336
300 301 293 290 293 294 298 303 304 301 301 302 307 310 312 325 327 327 331 336 337 336 338 339 336 339 342 344 345 345 345 343 340 340 339 337 338 339 339 337 336 336 334 333 333 334 334 334 334
298 297 292 292 293 294 298 303 302 299 301 300 303 307 314 321 326 328 330 335 335 336 336 336 337 335 335 338 339 342 343 341 340 339 340 338 338 337 337 339 338 336 333 332 332 334 333 333 332
300 299 294 292 293 294 300 301 302 299 300 304 306 305 309 319 326 327 329 333 333 333 335 334 334 335 334 334 333 336 337 338 337 335 333 331 332 331 331 330 337 336 333 333 334 333 332 331 330
305 295 293 293 295 295 299 299 301 301 302 303 307 308 316 325 326 324 324 330 331 331 332 332 333 333 333 333 330 331 332 332 331 329 327 325 326 325 326 327 333 336 336 333 333 332 331 329 327
298 294 295 299 298 297 299 301 301 298 299 301 308 320 324 325 323 321 323 326 329 328 330 332 331 331 332 334 331 332 332 329 328 327 325 325 325 324 324 322 326 330 330 332 331 330 328 324 319
298 296 299 298 300 302 300 298 301 297 294 301 306 317 321 321 321 320 321 324 328 329 330 331 331 331 330 330 329 330 330 330 328 326 325 325 322 322 321 319 319 320 320 322 323 321 320 320 319
295 300 298 301 301 300 300 301 297 298 298 302 310 320 319 320 321 321 321 323 326 328 330 331 333 333 331 329 329 329 329 328 328 327 327 322 320 320 320 319 319 318 318 318 318 317 318 316 317
296 298 298 299 300 300 302 299 299 298 299 303 311 319 318 320 320 321 323 324 326 328 329 330 331 332 332 330 329 329 327 328 328 327 327 324 320 318 320 319 319 318 317 318 317 316 316 315 316
299 298 298 298 298 299 299 296 298 298 300 303 313 314 316 318 318 317 320 322 326 330 329 330 331 332 332 333 331 332 331 329 327 327 326 325 322 319 319 319 319 318 318 318 317 315 314 314 316
299 294 295 296 298 296 297 294 295 298 299 300 303 306 312 315 317 317 318 321 325 330 331 330 330 331 333 333 332 332 331 331 328 326 327 325 323 320 319 318 318 318 318 317 315 314 314 314 315
294 292 289 294 296 296 296 290 297 297 298 297 297 297 301 307 313 315 318 319 321 327 330 331 332 331 330 333 332 332 332 331 331 330 327 326 324 321 319 318 318 318 317 316 314 313 312 312 312
289 284 286 290 295 294 292 289 293 295 296 295 294 295 296 299 303 309 316 318 319 324 327 330 331 329 330 333 333 333 333 332 332 331 330 328 325 323 319 318 318 317 315 314 313 312 311 310 309
283 284 287 286 291 292 290 290 293 294 294 294 294 294 294 298 300 305 310 317 320 321 324 328 330 329 329 332 333 333 332 332 333 331 330 330 328 325 320 318 317 316 314 312 311 311 310 310 309
289 288 287 288 292 291 290 290 293 294 292 292 293 294 295 296 299 301 306 313 317 319 322 327 328 328 328 328 330 330 329 330 331 332 330 330 329 327 323 319 317 316 314 312 310 309 308 307 306
289 286 286 288 291 290 288 289 292 293 293 294 294 294 295 295 297 299 300 303 310 315 318 322 329 329 329 329 329 327 330 330 331 332 331 330 329 328 326 323 319 317 315 312 311 308 307 307 309
288 286 285 287 289 289 285 284 287 293 294 294 295 295 295 295 297 297 298 298 299 300 301 308 319 328 330 330 328 327 329 328 328 328 329 330 330 329 328 325 323 320 317 315 315 312 310 309 306
286 291 290 288 284 280 283 277 283 287 290 292 293 293 294 295 295 295 297 299 300 301 302 301 302 303 314 328 328 327 326 325 327 328 329 329 329 329 328 327 324 323 320 317 315 313 312 310 308
288 291 290 288 286 283 282 279 282 286 287 290 291 292 294 294 296 297 299 302 302 303 304 303 301 300 301 310 325 325 325 326 326 327 326 327 327 327 326 326 325 323 322 318 315 313 312 311 312
292 289 289 286 284 277 280 280 280 285 287 288 290 293 294 294 296 297 299 301 301 302 303 304 299 299 301 306 316 322 321 323 322 322 324 324 324 324 324 324 324 323 321 319 317 316 314 313 312
290 285 279 277 276 276 279 279 283 287 288 291 292 293 293 294 295 296 297 298 299 300 302 307 307 303 305 309 312 314 316 322 322 320 321 322 322 321 322 321 321 321 320 319 317 316 315 314 313
286 285 278 272 274 276 279 278 285 289 289 292 294 294 294 295 296 296 297 297 298 299 300 303 306 306 307 308 309 310 311 312 316 317 317 316 316 317 317 317 319 319 318 318 318 317 315 315 312
286 283 287 280 272 275 278 282 288 289 288 291 293 294 293 294 295 295 296 296 296 296 298 299 300 301 304 306 304 304 307 308 307 308 309 308 307 307 308 309 310 312 312 312 311 311 310 310 310
288 289 282 281 270 269 276 278 281 285 287 289 292 292 293 294 294 295 295 295 295 295 296 297 297 297 298 299 299 299 299 300 300 301 300 300 301 301 300 300 300 301 301 301 302 302 302 302 303
285 284 284 285 280 274 273 278 284 287 289 289 290 293 293 293 293 293 294 294 294 293 293 293 294 295 295 295 295 295 294 294 295 294 294 295 295 295 295 296 296 296 296 296 296 296 296 296 298
287 286 286 282 279 280 280 279 289 288 290 290 291 294 293 294 293 293 293 292 292 291 291 292 292 293 292 292 292 292 292 292 291 291 291 292 292 292 292 292 292 292 293 293 293 292 292 292 292
Wind_Speed
8 9 1 5 5 6 3 1 5 5 5 2 3 9 8 3 3 4 7 15 15 11 9 9 12 13 13 15 13 14 15 15 16 16 16 14 19 19 18 16 16 16 17 17 16 17 16 16 16
5 6 6 1 5 4 6 2 8 7 5 8 7 6 6 3 4 10 10 15 15 12 8 8 11 13 14 14 13 14 15 15 16 16 16 15 16 18 17 18 15 16 17 18 18 18 18 17 16
5 2 3 4 3 3 4 2 7 5 6 4 3 6 4 3 4 5 12 17 15 11 8 8 10 10 11 12 13 14 14 14 14 16 15 15 15 18 17 16 16 17 17 17 18 18 17 15 14
4 5 5 5 3 7 5 7 8 4 5 5 6 7 4 5 9 8 12 15 15 11 9 9 11 12 13 13 13 15 15 14 13 15 14 14 14 16 17 16 14 15 16 16 15 16 14 12 13
4 3 2 2 3 5 5 9 7 6 6 1 4 2 5 3 8 12 13 13 15 11 9 8 12 11 12 12 12 14 15 14 13 13 14 13 13 13 16 15 13 15 14 14 14 15 14 13 14
4 4 4 2 3 4 4 6 8 6 5 4 8 6 2 5 10 8 9 14 12 12 9 8 9 10 11 11 12 13 15 14 13 12 13 12 12 12 12 14 13 12 16 12 12 12 13 11 12
4 4 4 4 0 3 4 5 7 7 6 3 6 6 4 5 8 8 10 13 12 12 10 7 6 8 10 10 10 12 14 13 12 11 11 10 10 11 12 10 13 14 13 11 11 12 11 10 10
3 4 2 4 3 6 5 4 4 5 2 1 5 6 6 6 10 8 10 13 13 10 10 8 6 6 6 5 9 10 11 11 12 11 11 9 9 9 9 7 12 13 12 11 11 11 10 9 7
2 4 4 5 3 4 4 5 3 1 7 5 4 3 8 12 10 8 7 10 11 10 10 8 8 7 7 6 6 8 10 10 10 8 9 7 4 5 6 6 8 12 12 11 9 8 7 6 4
3 4 9 6 4 6 4 6 8 5 5 4 6 8 12 12 10 9 10 12 13 11 12 11 10 8 8 6 6 6 7 4 5 5 6 4 5 4 4 6 9 9 10 9 6 4 4 3 2
4 5 5 1 5 11 10 3 4 9 2 7 12 11 9 7 7 8 7 7 9 11 9 11 10 10 8 6 4 3 3 3 4 6 5 4 4 4 4 3 3 4 6 3 3 1 1 2 1
3 6 0 3 1 5 10 7 5 6 5 9 14 17 9 9 10 9 9 8 10 8 8 8 10 12 10 6 5 5 5 4 3 4 6 4 3 4 4 3 4 4 3 3 2 2 2 2 1
5 4 3 3 2 1 8 6 6 6 4 7 13 13 11 11 9 8 9 9 9 9 8 8 6 5 9 8 6 6 5 4 5 5 5 5 4 5 4 4 4 4 3 4 3 3 2 0 2
5 5 4 3 2 1 6 3 4 6 7 9 15 12 11 12 11 8 9 9 12 13 12 8 7 6 5 8 9 7 6 5 4 4 5 6 5 4 4 4 4 4 4 4 4 4 3 3 2
6 5 0 4 4 3 6 1 6 5 8 11 10 9 10 11 11 12 12 11 14 13 14 13 10 8 7 8 7 4 4 5 5 4 6 6 5 5 5 4 4 4 4 5 3 3 2 2 2
7 6 4 4 7 3 3 6 9 7 10 10 10 8 9 10 10 10 10 11 10 12 14 13 11 11 9 7 4 4 3 4 4 5 5 6 6 6 5 4 4 4 4 4 3 3 3 3 3
4 5 5 3 7 3 4 5 3 8 8 8 8 9 9 8 8 8 10 10 10 12 13 13 13 13 11 8 5 5 4 3 3 4 4 7 7 6 5 4 4 5 4 3 3 3 2 3 3
4 4 4 6 7 4 4 5 4 4 8 9 8 8 9 9 11 9 9 8 9 10 11 14 12 12 10 7 5 4 4 4 4 4 4 6 6 7 5 4 5 4 4 4 3 4 3 3 4
4 6 8 2 4 5 8 6 10 7 5 8 9 8 8 10 10 9 8 8 8 7 9 13 13 12 9 6 7 6 7 5 5 4 6 6 5 7 7 5 5 4 4 5 4 2 4 3 1
5 5 6 2 1 5 2 11 9 7 8 9 11 9 9 5 7 8 8 6 7 8 7 8 12 13 11 9 7 4 5 3 6 5 6 6 7 6 6 6 6 6 4 5 6 5 2 3 4
6 6 6 7 3 1 3 8 6 9 6 7 9 8 6 10 8 5 7 6 5 5 3 3 6 11 12 12 7 3 4 2 3 4 4 6 7 7 7 8 6 6 6 7 7 7 8 5 2
7 4 8 12 6 4 5 7 6 7 9 8 8 8 8 8 6 6 7 6 6 3 4 2 2 3 4 9 11 12 7 6 4 4 5 6 8 8 7 7 7 7 5 6 6 5 5 4 5
5 6 8 5 5 6 2 3 10 2 4 8 10 6 7 8 9 8 7 6 5 4 4 3 2 1 1 3 7 8 7 6 4 3 5 5 5 6 6 6 6 6 5 6 5 4 5 5 5
8 8 8 5 4 0 6 6 7 5 7 4 4 7 7 8 8 8 7 7 6 5 6 3 1 1 2 4 5 7 7 6 5 4 4 3 2 3 4 4 5 5 4 6 6 7 7 7 7
7 6 3 3 1 7 1 4 10 5 4 8 11 9 9 8 7 7 8 7 5 6 5 5 6 5 5 7 8 6 4 5 6 5 3 3 3 2 3 3 4 3 4 4 5 6 7 8 7
6 8 8 8 5 5 2 8 8 4 1 10 9 9 8 8 7 6 7 6 5 6 7 7 7 6 7 7 8 7 7 5 6 5 5 4 4 4 5 5 5 4 5 4 3 2 3 4 4
6 4 5 8 3 5 5 6 7 3 5 7 10 10 9 8 7 7 7 7 6 6 7 7 7 6 7 7 7 8 8 9 7 10 9 5 5 5 6 6 6 6 6 5 4 3 3 4 3
5 8 4 3 5 3 4 4 6 8 11 8 9 9 8 7 8 7 6 6 5 6 6 8 8 7 7 9 9 9 9 10 10 10 8 8 6 7 7 7 7 7 7 7 6 5 5 5 4
4 4 2 6 6 7 3 8 8 8 13 16 10 11 11 9 8 7 6 6 6 6 6 7 8 8 9 8 8 10 9 9 9 8 7 6 7 7 7 6 6 7 7 7 6 6 6 6 6
2 6 5 6 6 2 3 7 2 2 9 14 12 11 8 8 8 7 7 7 7 7 6 7 7 9 7 7 9 9 8 8 9 8 6 6 7 6 6 6 6 6 6 6 6 6 5 6 5
Wind_Direction
320 308 194 34 50 65 272 8 123 88 49 88 87 86 115 31 44 152 116 124 129 124 128 116 109 103 106 110 113 109 102 102 100 96 94 94 94 90 90 84 88 87 85 81 80 80 79 78 72
326 313 36 93 79 31 276 200 94 95 141 82 71 116 50 70 45 107 110 130 126 130 126 120 119 114 114 115 115 113 105 103 103 99 94 89 96 94 91 86 88 89 84 83 83 82 79 78 72
294 200 69 95 107 200 186 106 135 111 96 101 88 72 91 95 85 127 127 132 129 124 118 120 108 103 108 111 125 118 109 106 106 100 96 85 87 101 92 85 86 91 85 86 85 81 78 78 73
336 7 4 89 259 284 138 155 139 102 42 63 109 63 51 226 151 141 131 132 118 120 118 119 111 104 105 102 127 121 112 110 109 105 102 96 87 102 100 94 94 93 87 91 89 83 79 72 73
27 60 35 18 296 268 55 145 130 109 134 131 95 86 80 9 124 122 132 117 121 122 122 121 113 109 102 100 117 125 118 113 113 112 109 102 92 88 101 99 98 96 101 93 87 87 76 67 61
360 94 59 258 265 255 92 153 131 125 139 136 84 111 114 146 125 139 116 120 123 123 115 117 114 111 100 95 99 127 120 115 114 114 111 107 97 84 96 111 109 106 98 96 97 85 77 72 63
129 87 215 241 229 256 162 125 116 141 132 177 137 90 167 143 167 144 123 123 121 121 118 117 116 116 109 110 107 123 123 121 116 112 98 90 90 81 68 94 118 99 98 97 91 87 79 68 59
129 102 225 244 152 268 192 94 68 97 137 163 128 148 181 207 162 138 124 127 126 128 127 130 126 118 111 111 111 120 123 119 117 115 111 103 108 104 92 67 122 113 109 104 86 93 89 77 50
42 80 214 242 199 207 212 120 54 121 97 50 31 128 161 150 143 128 127 133 135 138 143 145 150 148 140 134 130 118 120 121 120 122 128 121 120 101 92 88 125 108 107 104 92 94 100 95 52
127 139 215 208 197 213 167 129 135 103 101 67 57 54 119 138 156 156 160 151 151 156 157 160 160 159 152 148 142 133 136 137 138 142 148 128 135 127 109 91 86 79 95 101 99 104 122 70 351
212 169 253 274 321 155 157 125 146 121 186 179 157 149 143 144 159 161 169 162 161 160 161 166 167 160 158 146 153 147 153 156 159 164 168 158 139 136 128 109 99 116 116 118 128 152 150 271 267
305 247 183 247 310 155 156 136 157 151 201 196 162 158 152 164 169 175 173 173 159 160 151 158 168 166 155 152 164 164 166 174 174 184 173 146 139 145 156 151 162 161 158 169 179 193 249 227 108
222 227 117 296 67 190 128 147 171 143 160 117 137 155 159 168 186 186 176 180 158 166 167 165 144 151 147 158 167 170 180 174 175 174 173 147 161 163 166 177 171 184 169 184 195 205 211 297 314
243 204 169 217 143 11 120 134 128 202 147 109 149 166 173 175 191 187 188 188 168 175 172 171 170 175 174 161 172 176 177 171 168 167 173 170 164 175 173 178 181 191 185 180 182 187 196 221 219
228 120 266 189 188 182 110 24 204 200 158 142 159 179 184 192 192 197 189 185 174 179 178 177 175 180 197 199 188 193 163 166 162 176 177 176 178 185 174 175 183 192 188 181 183 202 194 216 237
154 112 165 245 155 251 134 236 239 190 152 174 178 196 192 210 197 200 192 185 171 169 177 175 176 183 178 189 200 198 197 162 173 169 173 190 184 184 178 180 195 196 189 180 184 185 211 224 222
184 184 163 193 188 153 162 224 242 169 159 183 194 203 211 221 215 204 202 184 173 172 167 174 177 175 179 179 179 180 194 184 181 172 168 183 188 184 183 188 203 193 188 191 192 221 191 227 244
174 181 169 168 207 180 184 236 193 186 154 191 213 220 209 205 223 206 190 196 172 169 166 162 171 173 170 160 164 172 185 185 182 191 189 183 189 184 182 192 192 185 178 199 187 198 207 200 216
199 202 182 166 163 134 201 224 221 218 184 193 212 231 219 192 219 211 198 179 166 167 163 168 168 176 166 167 181 190 199 196 198 198 197 195 182 190 183 187 189 189 191 202 186 176 210 257 139
208 214 199 3 99 133 186 250 245 210 213 192 199 214 217 229 219 202 193 187 160 154 183 170 181 174 177 179 187 175 175 187 197 193 197 196 188 189 195 191 194 194 192 200 198 179 193 234 180
195 186 198 164 166 82 97 292 235 240 223 189 217 206 196 203 195 153 143 139 119 112 90 170 180 182 183 184 172 160 131 146 164 188 193 203 205 203 194 201 198 195 193 213 203 193 196 232 222
202 198 158 141 124 197 143 264 282 236 223 206 212 186 165 126 111 109 106 89 95 65 50 31 42 113 169 176 180 180 178 185 181 177 192 198 202 206 205 203 200 208 203 205 210 190 195 159 226
190 140 149 136 107 100 226 100 269 111 182 207 198 178 133 119 120 101 99 92 65 57 35 337 323 359 85 137 178 191 180 186 165 177 185 192 195 199 203 206 207 210 205 205 188 178 205 199 228
137 91 43 49 82 66 223 151 276 213 193 183 136 152 145 114 113 111 108 91 62 35 48 23 8 359 57 105 160 177 180 169 152 182 206 184 160 182 222 216 216 213 207 202 204 214 211 213 219
111 107 54 23 7 220 333 156 242 252 179 187 159 151 147 129 121 113 98 82 71 61 50 61 71 52 69 84 83 97 124 150 168 120 105 108 125 176 238 226 223 208 208 214 200 208 223 226 228
167 150 146 174 182 221 12 222 252 226 195 138 140 133 118 115 115 117 115 104 82 78 75 66 66 69 68 71 73 76 76 72 77 96 97 73 66 53 36 39 29 17 13 357 327 288 277 268 245
207 172 154 102 15 76 214 280 301 121 83 120 138 135 139 137 128 122 112 117 107 77 76 80 74 61 60 69 76 66 65 71 74 69 68 64 53 51 47 46 40 34 41 26 23 25 8 2 334
185 153 103 14 130 236 269 266 232 205 187 170 164 154 152 135 131 128 121 116 100 91 81 75 69 70 58 64 62 66 68 68 69 67 60 59 52 48 48 45 44 41 35 23 18 10 358 359 347
159 183 159 119 141 163 162 253 222 212 194 185 176 170 160 149 148 139 129 117 106 91 81 81 75 76 69 67 68 69 63 66 69 70 59 56 55 46 48 48 50 46 40 26 31 20 7 356 340
321 196 152 166 204 218 155 264 220 311 208 171 170 161 150 141 146 141 137 127 110 104 95 90 83 86 80 75 77 74 72 70 74 70 63 59 62 49 53 52 56 44 38 32 34 16 0 348 343